Weather History for False Pass, AK

Change the Weather History Date:

Friday, March 15, 2013

  Actual Average (PACD) Record (PACD)
Temperature  
Mean Temperature 26 °F 30 °F  
Max Temperature 35 °F 35 °F 47 °F (1996)
Min Temperature 15 °F 25 °F -4 °F (1972)
Degree Days  
Heating Degree Days 39 35  
Month to date heating degree days 525  
Since 1 July heating degree days 6749  
Cooling Degree Days 0    
Month to date cooling degree days  
Year to date cooling degree days  
Moisture  
Dew Point 24 °F    
Average Humidity 80    
Maximum Humidity 93    
Minimum Humidity 58    
Precipitation  
Precipitation 0.01 in 0.08 in 2.29 in (2002)
Month to date precipitation 1.42  
Year to date precipitation 7.56  
Snow  
Snow 0.00 in 0.40 in 2.60 in (2005)
Month to date snowfall 6.5  
Since 1 July snowfall 58.7  
Snow Depth -    
Sea Level Pressure  
Sea Level Pressure 29.88 in    
Wind  
Wind Speed 12 mph (SSE)    
Max Wind Speed 29 mph    
Max Gust Speed 39 mph    
Visibility 6 miles    
Events Rain , Snow    
T = Trace of Precipitation, MM = Missing Value Source: NWS Daily Summary

Daily Weather History Graph

Daily Weather History Graph

Search for Another Location

Airport:

Trip Planner

Search our weather history database for the weather conditions in past years. The results will help you decide how hot, cold, wet, or windy it might be!

Date:

Astronomy

Mar. 15, 2013 Rise Set
Actual Time 8:07 AM HADT 7:58 PM HADT
Civil Twilight 7:31 AM HADT 8:34 PM HADT
Nautical Twilight 6:49 AM HADT 9:16 PM HADT
Astronomical Twilight 6:05 AM HADT 10:01 PM HADT
Moon 9:21 AM HADT (3/15) 12:06 AM HADT (3/15)
Length of Visible Light 13h 03m
Length of Day
11h 51m
Waxing Crescent, 16% of the Moon is Illuminated
Mar 15
Waxing Crescent
Mar 19
First Quarter
Mar 27
Full
Apr 2
Last Quarter
Apr 10
New

Hourly Weather History & Observations

Time (HADT) Temp. Windchill Dew Point Humidity Pressure Visibility Wind Dir Wind Speed Gust Speed Precip Events Conditions
12:01 AM 23.0 °F 13.9 °F 10.0 °F 58% 30.14 in 10.0 mi NW 8.1 mph - 0.00 in   Clear
1:01 AM 21.9 °F 11.7 °F 10.0 °F 60% 30.14 in 10.0 mi West 9.2 mph - N/A   Clear
2:01 AM 21.0 °F 9.9 °F 10.9 °F 65% 30.14 in 10.0 mi NNW 10.4 mph - N/A   Clear
3:01 AM 18.0 °F - 8.1 °F 65% 30.14 in 10.0 mi Calm Calm - N/A   Clear
4:01 AM 17.1 °F 10.0 °F 8.1 °F 68% 30.14 in 10.0 mi SSW 4.6 mph - N/A   Clear
5:01 AM 15.1 °F 4.2 °F 8.1 °F 74% 30.12 in 10.0 mi SSW 8.1 mph - N/A   Clear
6:01 AM 17.1 °F 8.7 °F 9.0 °F 71% 30.12 in 10.0 mi SW 5.8 mph - N/A   Clear
7:01 AM 17.1 °F 6.6 °F 9.0 °F 71% 30.10 in 10.0 mi South 8.1 mph - N/A   Clear
8:01 AM 19.0 °F - 10.9 °F 71% 30.09 in 10.0 mi Calm Calm - N/A   Partly Cloudy
9:01 AM 25.0 °F 13.6 °F 16.0 °F 69% 30.07 in 10.0 mi SE 12.7 mph - N/A   Scattered Clouds
10:01 AM 26.1 °F 12.0 °F 19.9 °F 78% 30.06 in 7.0 mi ESE 20.7 mph - 0.00 in   Overcast
10:22 AM 26.6 °F 14.3 °F 23.0 °F 86% 29.77 in 1.8 mi ESE 16.1 mph 20.7 mph 0.00 in Snow Light Snow
10:32 AM 24.8 °F 11.9 °F 21.2 °F 86% 29.77 in 1.0 mi ESE 16.1 mph - 0.00 in Snow Light Snow
11:01 AM 26.6 °F 14.7 °F 24.8 °F 93% 29.75 in 0.8 mi ESE 15.0 mph - 0.00 in Snow Light Snow
11:09 AM 26.6 °F 15.2 °F 24.8 °F 93% 29.76 in 1.0 mi ESE 13.8 mph - 0.00 in Snow Light Snow
11:45 AM 28.4 °F 17.5 °F 24.8 °F 86% 29.73 in 1.5 mi East 13.8 mph - 0.00 in Snow Light Snow
12:01 PM 28.4 °F 17.5 °F 26.6 °F 93% 29.72 in 2.5 mi East 13.8 mph - 0.00 in Snow Light Snow
12:11 PM 30.0 °F 18.7 °F 27.0 °F 88% 30.01 in 2.5 mi ESE 16.1 mph 21.9 mph 0.00 in Snow Light Snow
12:18 PM 30.2 °F 18.9 °F 28.4 °F 93% 29.71 in 1.8 mi ESE 16.1 mph 21.9 mph 0.00 in Snow Light Snow
12:32 PM 30.2 °F 19.8 °F 28.4 °F 93% 29.70 in 1.2 mi East 13.8 mph 23.0 mph 0.00 in Snow Light Snow
12:45 PM 30.2 °F 20.8 °F 28.4 °F 93% 29.70 in 1.0 mi ESE 11.5 mph 17.3 mph 0.00 in Snow Light Snow
12:52 PM 32.0 °F 23.6 °F 28.4 °F 87% 29.69 in 1.2 mi East 10.4 mph - 0.00 in Snow Light Snow
12:59 PM 32.0 °F 21.6 °F 28.4 °F 87% 29.69 in 1.2 mi East 15.0 mph - 0.00 in Snow Light Snow
1:01 PM 32.0 °F 21.6 °F 28.9 °F 88% 29.97 in 1.2 mi ENE 15.0 mph - 0.00 in Snow Light Snow
1:16 PM 32.0 °F 21.6 °F 30.2 °F 93% 29.67 in 1.5 mi East 15.0 mph - 0.00 in Snow Light Snow
1:29 PM 33.8 °F 22.8 °F 30.2 °F 87% 29.67 in 1.5 mi East 18.4 mph 24.2 mph 0.00 in   Overcast
2:01 PM 33.8 °F 23.5 °F 30.2 °F 87% 29.65 in 1.2 mi East 16.1 mph - 0.00 in   Overcast
2:25 PM 35.6 °F 25.5 °F 32.0 °F 87% 29.64 in 4.0 mi ESE 17.3 mph 28.8 mph 0.00 in Rain Light Rain
3:01 PM 34.0 °F 22.7 °F 30.9 °F 89% 29.91 in 4.0 mi SE 19.6 mph 27.6 mph 0.00 in Rain Light Rain
4:01 PM 36.0 °F 27.5 °F 32.0 °F 86% 29.90 in 10.0 mi East 12.7 mph - 0.00 in   Scattered Clouds
5:01 PM 36.0 °F 30.3 °F 33.1 °F 89% 29.93 in 10.0 mi East 6.9 mph - N/A   Overcast
6:01 PM 36.0 °F 26.3 °F 33.1 °F 89% 29.94 in 5.0 mi SW 16.1 mph 20.7 mph 0.00 in Rain Light Rain
6:21 PM 37.4 °F 25.9 °F 30.2 °F 75% 29.67 in 4.0 mi WSW 25.3 mph 36.8 mph 0.01 in Rain Light Rain
7:01 PM 37.9 °F 30.0 °F 30.9 °F 76% 29.96 in 9.0 mi West 12.7 mph 23.0 mph 0.01 in Rain Light Rain
7:36 PM 35.6 °F 24.2 °F 30.2 °F 81% 29.69 in 4.0 mi West 21.9 mph 34.5 mph 0.00 in Rain Light Rain
7:44 PM 35.6 °F 23.7 °F 30.2 °F 81% 29.69 in 2.5 mi West 24.2 mph 34.5 mph 0.00 in Rain Rain
7:53 PM 35.6 °F 23.4 °F 30.2 °F 81% 29.70 in 1.2 mi West 25.3 mph 38.0 mph N/A Snow Light Snow
8:52 PM 35.6 °F 22.7 °F 28.4 °F 75% 29.73 in 10.0 mi West 28.8 mph 39.1 mph N/A   Overcast
9:01 PM 36.0 °F 23.2 °F 27.0 °F 70% 30.01 in 10.0 mi WSW 28.8 mph 38.0 mph N/A   Overcast
9:27 PM 35.6 °F 23.4 °F 26.6 °F 70% 29.75 in 10.0 mi WSW 25.3 mph 35.7 mph N/A   Scattered Clouds
10:01 PM 36.0 °F 26.7 °F 27.0 °F 70% 30.07 in 10.0 mi West 15.0 mph 29.9 mph N/A   Scattered Clouds
11:01 PM 35.1 °F 25.2 °F 25.0 °F 67% 30.09 in 10.0 mi WSW 16.1 mph 21.9 mph N/A   Scattered Clouds